STARLINK-31133 (58622 NORAD) Tracking and Keplerian Element Data

This shows tracking and keplerian element data for the satellite.

Feedback or suggestion? Click here.




ElementValue
Catalog58622
NameSTARLINK-31133
Epoch Orbit333
Epoch Day13.25002315
Epoch Year2024
RAAN183.7461
Inclination43.0013
Eccentricity0.000174
Argument of Perigee263.1903
Mean Anonmoly0.1823
Mean Motion15.52645087
Decay Rate-0.01744715
L11 58622U 23203E 24013.25002315 -.01744715 00000+0 -30984-1 0 9996
L22 58622 43.0013 183.7461 0001740 263.1903 0.1823 15.52645087 3338



Live tracking and technical data element details for STARLINK-31133 (NORAD 58622). STARLINK-31133 can be tracked NOW for your location showing map with azimuth and elevation plus other details from your city location.







IsCatalogInMostPopularTable: catalog: 58622, numindb: 23
Update: records affected: 1



GetName: 58622 STARLINK-31133

Hit Count: updated at: Wed, 17 Apr 2024 02:35:21 GMT